Location: Newark
(47.5833°N, 8.1500°E)
Time: 11:55:11
(UTC+00:00)

Vanguard 2 Rocket - Pass Details

Date: 04 November 2020
Orbit: 553 x 3326 km, 32.9° (Epoch: 04 December)

Event Time Altitude Azimuth Distance (km) Brightness Sun altitude
Rises 15:59:38 0° 226° (SW) 3,214 11.4 0.0°
Reaches altitude 10° 16:04:30 10° 184° (S) 1,938 9.0 -0.8°
Maximum altitude 16:05:10 10° 175° (S) 1,887 8.8 -0.9°
Drops below altitude 10° 16:05:48 10° 166° (SSE) 1,881 8.7 -1.0°
Sets 16:10:00 0° 121° (ESE) 2,719 9.0 -1.6°
